TimeEDT,TemperatureF,Dew PointF,Humidity,Sea Level PressureIn,VisibilityMPH,Wind Direction,Wind SpeedMPH,Gust SpeedMPH,PrecipitationIn,Events,Conditions,WindDirDegrees,DateUTC
12:13 AM,66.2,62.6,88,29.83,5.0,SSW,13.8,21.9,0.04,Rain-Thunderstorm,Light Thunderstorms and Rain,210,2013-04-20 04:13:00
12:47 AM,64.4,62.6,94,29.81,10.0,South,6.9,-,0.05,Rain,Light Rain,190,2013-04-20 04:47:00
12:56 AM,64.9,62.1,90,29.81,10.0,SSW,6.9,-,0.05,Rain,Light Rain,200,2013-04-20 04:56:00
1:56 AM,64.9,62.1,90,29.82,10.0,South,10.4,18.4,0.06,Rain,Light Rain,190,2013-04-20 05:56:00
2:56 AM,66.0,63.0,90,29.82,7.0,SSW,12.7,-,0.08,Rain,Light Rain,210,2013-04-20 06:56:00
3:56 AM,66.0,63.0,90,29.81,10.0,SW,15.0,-,0.06,Rain,Light Rain,230,2013-04-20 07:56:00
4:41 AM,60.8,57.2,88,29.86,6.0,NNW,26.5,36.8,0.05,Rain,Light Rain,330,2013-04-20 08:41:00
4:56 AM,54.0,52.0,93,29.90,4.0,NNW,25.3,34.5,0.10,Rain,Light Rain,340,2013-04-20 08:56:00
5:47 AM,51.8,48.2,88,29.93,10.0,NNW,16.1,24.2,0.07,Rain,Light Rain,340,2013-04-20 09:47:00
5:56 AM,52.0,48.0,86,29.94,10.0,NNW,18.4,24.2,0.07,Rain,Light Rain,340,2013-04-20 09:56:00
6:35 AM,51.8,46.4,82,29.96,9.0,NNW,12.7,-,0.03,Rain,Light Rain,340,2013-04-20 10:35:00
6:56 AM,52.0,46.9,83,29.97,10.0,North,10.4,-,0.04,Rain,Light Rain,360,2013-04-20 10:56:00
7:56 AM,53.1,46.0,77,30.01,10.0,North,10.4,-,0.00,Rain,Light Rain,360,2013-04-20 11:56:00
8:17 AM,53.6,44.6,72,30.00,10.0,North,13.8,20.7,0.00,,Overcast,360,2013-04-20 12:17:00
8:56 AM,54.0,44.1,69,30.04,10.0,North,11.5,18.4,0.00,,Overcast,350,2013-04-20 12:56:00
9:56 AM,55.0,43.0,64,30.07,10.0,North,11.5,18.4,N/A,,Overcast,360,2013-04-20 13:56:00
10:56 AM,57.9,43.0,58,30.09,10.0,North,13.8,-,N/A,,Overcast,350,2013-04-20 14:56:00
11:56 AM,57.0,42.1,57,30.09,10.0,North,13.8,-,N/A,,Overcast,360,2013-04-20 15:56:00
12:56 PM,57.9,41.0,53,30.10,10.0,North,9.2,18.4,N/A,,Mostly Cloudy,350,2013-04-20 16:56:00
1:56 PM,57.0,39.0,51,30.11,10.0,NNW,5.8,-,N/A,,Mostly Cloudy,330,2013-04-20 17:56:00
2:56 PM,57.0,39.0,51,30.12,10.0,North,8.1,-,N/A,,Mostly Cloudy,350,2013-04-20 18:56:00
3:56 PM,57.0,37.9,49,30.12,10.0,NNW,6.9,-,N/A,,Mostly Cloudy,340,2013-04-20 19:56:00
4:56 PM,55.9,37.9,51,30.13,10.0,North,5.8,-,N/A,,Mostly Cloudy,10,2013-04-20 20:56:00
5:56 PM,55.0,41.0,59,30.15,10.0,ENE,4.6,-,N/A,,Mostly Cloudy,70,2013-04-20 21:56:00
6:56 PM,53.1,41.0,64,30.17,10.0,ESE,4.6,-,N/A,,Mostly Cloudy,120,2013-04-20 22:56:00
7:56 PM,51.1,44.1,77,30.19,10.0,SE,4.6,-,N/A,,Mostly Cloudy,130,2013-04-20 23:56:00
8:56 PM,52.0,42.1,69,30.25,10.0,SE,3.5,-,N/A,,Mostly Cloudy,130,2013-04-21 00:56:00
9:56 PM,51.1,44.1,77,30.26,10.0,Calm,Calm,-,N/A,,Overcast,0,2013-04-21 01:56:00
10:56 PM,48.9,43.0,80,30.28,10.0,Calm,Calm,-,N/A,,Mostly Cloudy,0,2013-04-21 02:56:00
11:56 PM,48.0,44.1,86,30.29,10.0,Calm,Calm,-,N/A,,Mostly Cloudy,0,2013-04-21 03:56:00